Location: Aiyede
(8.4833°N, 4.4500°E)
Time: 08:58:11
(UTC+00:00)

Cosmos 1867 - Pass Details

Date: 24 September 2020
Orbit: 777 x 799 km, 65.0° (Epoch: 21 October)

Event Time Altitude Azimuth Distance (km) Brightness Sun altitude
Rises 18:52:20 0° 346° (NNW) 3,287 7.0 -19.5°
Reaches altitude 10° 18:54:49 10° 351° (N) 2,356 6.1 -20.1°
Maximum altitude 19:00:05 53° 67° (ENE) 964 3.6 -21.4°
Enters shadow 19:01:02 47° 103° (ESE) 1,038 3.7 -21.7°
